This demonstration page uses our WeatherBlox Daily Observations layout. Learn more.

Left ArrowRight Arrow

39.92423, -83.80882

Hourly Observations for January 3, 2019

Temp ( °F °C ) Dew Point ( °F °C ) Humidity (%) Winds ( mph kmh ) Pressure ( in mb ) Visibility ( mi km ) Precip ( " mm )
12:40 am 00:40 Cloudy 34 1 30 -1 87 87 WNW 17 28 30.12 1020 10 16 N/A
12:47 am 00:47 Cloudy 34 1 30 -1 87 87 WNW 16 26 30.12 1020 10 16 N/A
12:56 am 00:56 Cloudy 34 1.1 30 -1.1 85 85 WNW 14 22 30.09 1019 10 16 N/A
1:56 am 01:56 Cloudy 33 0.6 30 -1.1 89 89 W 12 19 30.09 1019 10 16 N/A
2:56 am 02:56 Cloudy 33 0.6 29 -1.7 85 85 W 9 15 30.09 1019 10 16 N/A
3:56 am 03:56 Cloudy 33 0.6 29 -1.7 85 85 W 8 13 30.09 1019 10 16 N/A
4:56 am 04:56 Cloudy 33 0.6 29 -1.7 85 85 WNW 10 17 30.08 1019 10 16 N/A
5:56 am 05:56 Cloudy 32 undefined 29 -1.7 88 88 WNW 8 13 30.10 1019 10 16 N/A
6:05 am 06:05 Cloudy 32 undefined 28 -2 87 87 W 9 15 30.12 1020 10 16 N/A
6:56 am 06:56 Cloudy 32 undefined 29 -1.7 88 88 WNW 7 11 30.12 1020 10 16 N/A
7:56 am 07:56 Cloudy 31 -0.6 28 -2.2 89 89 WNW 9 15 30.12 1020 10 16 N/A
8:56 am 08:56 Cloudy 31 -0.6 28 -2.2 89 89 W 7 11 30.14 1021 10 16 N/A
9:56 am 09:56 Cloudy 31 -0.6 28 -2.2 89 89 W 10 17 30.16 1022 10 16 N/A
10:56 am 10:56 Cloudy 32 undefined 29 -1.7 88 88 W 8 13 30.17 1022 10 16 N/A
11:56 am 11:56 Cloudy 33 0.6 29 -1.7 85 85 W 6 9 30.13 1020 10 16 N/A
12:56 pm 12:56 Cloudy 35 1.7 30 -1.1 82 82 W 7 11 30.09 1019 10 16 N/A
1:26 pm 13:26 Mostly Cloudy 36 2 30 -1 81 81 WSW 9 15 30.12 1020 10 16 N/A
1:56 pm 13:56 Partly Cloudy 37 2.8 30 -1.1 76 76 W 8 13 30.08 1019 10 16 N/A
2:56 pm 14:56 Mostly Sunny 37 2.8 31 -0.6 79 79 SW 10 17 30.07 1018 10 16 N/A
3:56 pm 15:56 Sunny 37 2.8 31 -0.6 79 79 SW 9 15 30.08 1019 10 16 N/A
4:56 pm 16:56 Sunny 35 1.7 30 -1.1 82 82 SW 5 7 30.07 1018 10 16 N/A
5:56 pm 17:56 Clear 33 0.6 30 -1.1 89 89 SW 5 7 30.09 1019 10 16 N/A
6:56 pm 18:56 Clear 33 0.6 29 -1.7 85 85 W 6 9 30.10 1019 10 16 N/A
7:56 pm 19:56 Clear 31 -0.6 30 -1.1 96 96 WSW 5 7 30.10 1019 10 16 N/A
8:56 pm 20:56 Clear 31 -0.6 29 -1.7 92 92 SW 6 9 30.09 1019 10 16 N/A
9:56 pm 21:56 Clear 30 -1.1 29 -1.7 96 96 N N/A 30.09 1019 10 16 N/A
10:56 pm 22:56 Clear 31 -0.6 29 -1.7 92 92 N N/A 30.06 1018 10 16 N/A
11:56 pm 23:56 Clear 32 undefined 30 -1.1 92 92 SSW 7 11 30.04 1017 9 14 N/A

Powered by AerisWeather